Location: Maiden
(35.5760°N, 81.2120°W)
Time: 02:55:06
(UTC-04:00)

Cosmos 1633 Rocket - Pass Details

Date: 02 August 2020
Orbit: 607 x 623 km, 82.5° (Epoch: 11 August)

Event Time Altitude Azimuth Distance (km) Brightness Sun altitude
Exits shadow 23:26:18 43° 332° (NNW) 874 4.1 -29.3°
Drops below altitude 10° 23:29:33 10° 358° (N) 1,999 6.3 -29.7°
Sets 23:31:49 0° 3° (N) 2,909 7.3 -30.0°
